Regional Weather Roundup
Issued by NWS Little Rock, AR

Home | Current Version | Previous Version | Graphics & Text | Print | Product List | Glossary On
Versions: 1 2 3 4 5 6 7 8 9 10 11 12 13 14 15 16 17 18 19 20 21 22 23 24 25 26 27 28 29 30 31 32 33 34 35 36 37 38 39 40 41 42 43 44 45 46 47 48 49 50
000
ASUS44 KLZK 210005
RWRLZK

WEATHER ROUNDUP FOR ARKANSAS
NATIONAL WEATHER SERVICE LITTLE ROCK AR
700 PM CDT SUN AUG 20 2017

NOTE: "FAIR" INDICATES FEW OR NO CLOUDS BELOW 12,000 FEET WITH NO
SIGNIFICANT WEATHER AND/OR OBSTRUCTIONS TO VISIBILITY.

ARZ001-003-010-029-210100-
NORTHWEST ARKANSAS

CITY           SKY/WX    TMP DP  RH WIND       PRES   REMARKS
FAYETTEVILLE   SUNNY     87  74  64 S3        30.02F HX  95
6HR MIN TEMP:  87; 6HR MAX TEMP:  91;

FORT SMITH     PTSUNNY   85  70  60 N15       29.99R THUNDER HX  89
6HR MIN TEMP:  83; 6HR MAX TEMP:  97;

HARRISON       SUNNY     83  72  69 SE8       30.04F HX  88
6HR MIN TEMP:  83; 6HR MAX TEMP:  93; 6HR PCP: TRACE;

BENTONVILLE    MOSUNNY   90  72  55 SW9       30.03S HX  96
6HR MIN TEMP:  90; 6HR MAX TEMP:  93;

ROGERS         MOSUNNY   89  74  60 S9        30.02F HX  98
6HR MIN TEMP:  89; 6HR MAX TEMP:  94;

SILOAM SPGS    SUNNY     90  72  55 S6        30.00F HX  96
6HR MIN TEMP:  90; 6HR MAX TEMP:  93;

HIGHFILL       MOSUNNY   88  75  65 S5        30.02F HX  97
6HR MIN TEMP:  88; 6HR MAX TEMP:  92;

SPRINGDALE     MOSUNNY   90  72  55 S7        30.04F HX  96
$$

ARZ004-005-016-210100-
NORTH CENTRAL ARKANSAS

CITY           SKY/WX    TMP DP  RH WIND       PRES   REMARKS
BATESVILLE     PTCLDY    84  72  65 E7        30.03R HX  89
6HR MIN TEMP:  81; 6HR MAX TEMP:  93;

FLIPPIN        CLEAR     86  68  54 E3        29.99F HX  89
6HR MIN TEMP:  79; 6HR MAX TEMP:  95;

MTN HOME       CLEAR     83  74  74 SE5       30.02F HX  89
6HR MIN TEMP:  72; 6HR MAX TEMP:  92; 6HR PCP:  0.88;

$$

ARZ040-041-210100-
WEST CENTRAL ARKANSAS

CITY           SKY/WX    TMP DP  RH WIND       PRES   REMARKS
MENA           MOSUNNY   91  77  62 CALM      30.02F HX 105
MOUNT IDA      SUNNY     88  74  63 CALM      29.99F HX  96
6HR MIN TEMP:  88; 6HR MAX TEMP:  94;

$$

ARZ009-017-025-026-028-210100-
NORTHEAST ARKANSAS

CITY           SKY/WX    TMP DP  RH WIND       PRES   REMARKS
JONESBORO      CLOUDY    82  77  84 CALM      30.01F HX  90
6HR MIN TEMP:  76; 6HR MAX TEMP:  85; 6HR PCP:  0.17;

NEWPORT        PTCLDY    81  73  76 E6        30.02S HX  86
6HR MIN TEMP:  75; 6HR MAX TEMP:  94; 6HR PCP: TRACE;

WALNUT RIDGE   PTCLDY    81  73  78 CALM      30.01S HX  85
6HR MIN TEMP:  79; 6HR MAX TEMP:  90;

BLYTHEVILLE    CLOUDY    85  81  88 CALM      30.02S HX 100
6HR MIN TEMP:  84; 6HR MAX TEMP:  90;

$$

ARZ022-023-033-042-044-210100-
CENTRAL ARKANSAS

CITY           SKY/WX    TMP DP  RH WIND       PRES   REMARKS
LITTLE ROCK    PTCLDY    91  78  65 SE7       29.99S HX 106
6HR MIN TEMP:  91; 6HR MAX TEMP:  95;

N LITTLE ROCK    N/A     92  76  58 S6        29.99S HX 103
6HR MIN TEMP:  92; 6HR MAX TEMP:  95;

JACKSONVILLE   CLEAR     92  78  63 SE3       29.99S HX 107
6HR MIN TEMP:  92; 6HR MAX TEMP:  97;

CONWAY           N/A     88  82  84 SE5       29.96S HX 108
SEARCY         CLEAR     86  76  71 E8        30.03R HX  96
6HR MIN TEMP:  86; 6HR MAX TEMP:  98;

HOT SPRINGS    SUNNY     92  75  57 S5        30.00S HX 103
6HR MIN TEMP:  92; 6HR MAX TEMP:  96;

RUSSELLVILLE   CLOUDY    85  79  82 CALM      29.98S HX  98
6HR MIN TEMP:  85; 6HR MAX TEMP:  96;

CLINTON        FAIR      86  75  70 CALM      30.00F HX  95
$$

ARZ036-210100-
EAST ARKANSAS

CITY           SKY/WX    TMP DP  RH WIND       PRES   REMARKS
WEST MEMPHIS   CLOUDY    84  76  76 SE5       30.01R HX  93
6HR MIN TEMP:  83; 6HR MAX TEMP:  95;

$$

ARZ050-053-066-070-073-210100-
SOUTHWEST ARKANSAS

CITY           SKY/WX    TMP DP  RH WIND       PRES   REMARKS
ARKADELPHIA    FAIR      92  78  63 S5        29.99S HX 107
6HR MIN TEMP:  92; 6HR MAX TEMP:  97;

CAMDEN         PTCLDY    88  73  62 SW9       29.99S HX  96
TEXARKANA      LGT RAIN  77  75  93 S6        30.02S
6HR MIN TEMP:  75; 6HR MAX TEMP:  94; 6HR PCP:  0.21;

EL DORADO      CLOUDY    79  77  94 CALM      30.01F
6HR MIN TEMP:  78; 6HR MAX TEMP:  97; 6HR PCP:  0.01;

DE QUEEN       SUNNY     92  78  63 S5        29.97S HX 107
6HR MIN TEMP:  90; 6HR MAX TEMP:  96;

$$

ARZ056-057-069-210100-
SOUTHEAST ARKANSAS

CITY           SKY/WX    TMP DP  RH WIND       PRES   REMARKS
PINE BLUFF     CLEAR     90  76  63 SE3       30.01R HX 101
6HR MIN TEMP:  87; 6HR MAX TEMP:  96;

MONTICELLO     CLEAR     92  75  57 S3        30.01R HX 103
6HR MIN TEMP:  92; 6HR MAX TEMP:  96;


$$





USA.gov is the U.S. government's official web portal to all federal, state and local government web resources and services.